Wetterdaten: Woche 09.02.09 - 15.02.09 (KW7)
Datum Zeit Temperatur Luftfeuchte Luftdruck Niederschlag Windrichtung Wind
09.02.2009 00:00 -1,6 C 88 % 1010,2 hPa 0,0 l/m NW 0,7 km/h (0 Bft)
09.02.2009 01:00 -1,7 C 90 % 1010,3 hPa 0,0 l/m N 0,7 km/h (0 Bft)
09.02.2009 02:00 -1,6 C 91 % 1010,5 hPa 0,0 l/m SW 1,3 km/h (1 Bft)
09.02.2009 03:00 -1,4 C 93 % 1010,3 hPa 0,0 l/m SW 3,7 km/h (1 Bft)
09.02.2009 04:00 -1,8 C 93 % 1010,3 hPa 0,0 l/m SW 4,3 km/h (1 Bft)
09.02.2009 05:00 -2,2 C 95 % 1010,4 hPa 0,0 l/m S-SW 4,7 km/h (1 Bft)
09.02.2009 06:00 -2,6 C 95 % 1010,4 hPa 0,0 l/m SW 5,3 km/h (1 Bft)
09.02.2009 07:00 -2,9 C 94 % 1010,8 hPa 0,0 l/m SW 8,4 km/h (2 Bft)
09.02.2009 08:00 -2,7 C 90 % 1010,7 hPa 0,0 l/m SW 11,8 km/h (2 Bft)
09.02.2009 09:00 -1,6 C 89 % 1011,2 hPa 0,0 l/m SW 13,4 km/h (3 Bft)
09.02.2009 10:00 -0,2 C 86 % 1011,4 hPa 0,0 l/m S-SW 14,2 km/h (3 Bft)
09.02.2009 11:00 0,4 C 84 % 1011,6 hPa 0,0 l/m S-SW 16,1 km/h (3 Bft)
09.02.2009 12:00 0,8 C 81 % 1011,7 hPa 0,0 l/m SW 17,0 km/h (3 Bft)
09.02.2009 13:00 1,7 C 80 % 1010,6 hPa 0,0 l/m SW 20,6 km/h (4 Bft)
09.02.2009 14:00 1,9 C 79 % 1009,9 hPa 0,0 l/m SW 21,7 km/h (4 Bft)
09.02.2009 15:00 2,1 C 78 % 1009,5 hPa 0,0 l/m SW 16,1 km/h (3 Bft)
09.02.2009 16:00 1,7 C 80 % 1008,7 hPa 0,0 l/m SW 16,0 km/h (3 Bft)
09.02.2009 17:00 1,3 C 81 % 1008,2 hPa 0,0 l/m SW 12,5 km/h (3 Bft)
09.02.2009 18:00 1,0 C 82 % 1007,5 hPa 0,0 l/m S-SW 9,9 km/h (2 Bft)
09.02.2009 19:00 0,9 C 83 % 1006,9 hPa 0,0 l/m SW 11,5 km/h (2 Bft)
09.02.2009 20:00 0,8 C 88 % 1005,8 hPa 0,0 l/m SW 9,3 km/h (2 Bft)
09.02.2009 21:00 0,2 C 94 % 1004,9 hPa 1,6 l/m SW 12,1 km/h (2 Bft)
09.02.2009 22:00 0,2 C 97 % 1004,2 hPa 2,0 l/m SW 16,0 km/h (3 Bft)
09.02.2009 23:00 0,7 C 97 % 1003,5 hPa 0,6 l/m SW 19,4 km/h (3 Bft)
10.02.2009 00:00 0,6 C 97 % 1002,5 hPa 0,0 l/m SW 20,8 km/h (4 Bft)
10.02.2009 01:00 1,2 C 97 % 1001,4 hPa 0,0 l/m SW 20,5 km/h (4 Bft)
10.02.2009 02:00 2,1 C 96 % 1000,4 hPa 0,0 l/m W-SW 20,2 km/h (4 Bft)
10.02.2009 03:00 3,2 C 94 % 998,9 hPa 0,0 l/m W-SW 21,7 km/h (4 Bft)
10.02.2009 04:00 3,4 C 92 % 998,0 hPa 0,2 l/m S-SW 19,7 km/h (3 Bft)
10.02.2009 05:00 2,7 C 95 % 996,9 hPa 0,2 l/m SW 14,9 km/h (3 Bft)
10.02.2009 06:00 2,4 C 97 % 995,6 hPa 0,2 l/m S-SW 18,4 km/h (3 Bft)
10.02.2009 07:00 1,9 C 97 % 994,7 hPa 0,0 l/m S-SW 20,0 km/h (4 Bft)
10.02.2009 08:00 2,6 C 95 % 994,4 hPa 0,0 l/m SW 22,7 km/h (4 Bft)
10.02.2009 09:00 5,4 C 81 % 994,0 hPa 0,0 l/m SW 32,2 km/h (5 Bft)
10.02.2009 10:00 5,0 C 85 % 995,8 hPa 1,2 l/m W 49,8 km/h (6 Bft)
10.02.2009 11:00 4,9 C 89 % 996,8 hPa 0,0 l/m W-SW 47,5 km/h (6 Bft)
10.02.2009 12:00 5,0 C 87 % 997,1 hPa 0,2 l/m W-SW 44,5 km/h (6 Bft)
10.02.2009 13:00 5,6 C 81 % 997,4 hPa 0,0 l/m SW 45,3 km/h (6 Bft)
10.02.2009 14:00 5,8 C 76 % 997,8 hPa 0,0 l/m W-SW 43,7 km/h (6 Bft)
10.02.2009 15:00 5,8 C 71 % 998,9 hPa 0,0 l/m W 42,8 km/h (6 Bft)
10.02.2009 16:00 4,6 C 76 % 999,6 hPa 0,0 l/m SW 50,2 km/h (7 Bft)
10.02.2009 17:00 4,0 C 77 % 1000,7 hPa 0,0 l/m W-SW 48,2 km/h (6 Bft)
10.02.2009 18:00 2,8 C 85 % 1002,7 hPa 1,4 l/m W-SW 38,7 km/h (5 Bft)
10.02.2009 19:00 1,5 C 93 % 1003,7 hPa 1,0 l/m W 27,4 km/h (4 Bft)
10.02.2009 20:00 1,3 C 94 % 1004,5 hPa 0,2 l/m W-SW 22,9 km/h (4 Bft)
10.02.2009 21:00 1,3 C 94 % 1005,3 hPa 0,0 l/m SW 22,0 km/h (4 Bft)
10.02.2009 22:00 1,3 C 93 % 1005,9 hPa 0,0 l/m W-SW 22,7 km/h (4 Bft)
10.02.2009 23:00 1,1 C 92 % 1006,7 hPa 0,0 l/m W 22,1 km/h (4 Bft)
11.02.2009 00:00 0,9 C 91 % 1007,4 hPa 0,0 l/m W 22,9 km/h (4 Bft)
11.02.2009 01:00 0,7 C 90 % 1008,0 hPa 0,0 l/m W-SW 19,6 km/h (3 Bft)
11.02.2009 02:00 0,5 C 90 % 1008,4 hPa 0,0 l/m W-SW 19,6 km/h (3 Bft)
11.02.2009 03:00 0,2 C 89 % 1009,1 hPa 0,0 l/m W-SW 13,0 km/h (3 Bft)
11.02.2009 04:00 0,1 C 90 % 1009,5 hPa 0,0 l/m W 14,9 km/h (3 Bft)
11.02.2009 05:00 -0,2 C 89 % 1010,1 hPa 0,0 l/m W 14,1 km/h (3 Bft)
11.02.2009 06:00 -0,6 C 88 % 1010,5 hPa 0,0 l/m W-NW 10,3 km/h (2 Bft)
11.02.2009 07:00 -0,7 C 91 % 1011,0 hPa 0,0 l/m W 10,1 km/h (2 Bft)
11.02.2009 08:00 -0,6 C 92 % 1011,8 hPa 0,0 l/m W-NW 10,6 km/h (2 Bft)
11.02.2009 09:00 -0,3 C 92 % 1012,3 hPa 0,4 l/m W-NW 11,4 km/h (2 Bft)
11.02.2009 10:00 0,0 C 90 % 1012,8 hPa 0,0 l/m W-NW 13,6 km/h (3 Bft)
11.02.2009 11:00 0,7 C 86 % 1013,3 hPa 0,0 l/m W-NW 15,7 km/h (3 Bft)
11.02.2009 12:00 1,1 C 80 % 1013,5 hPa 0,0 l/m W-NW 21,4 km/h (4 Bft)
11.02.2009 13:00 1,6 C 72 % 1013,5 hPa 0,0 l/m W-NW 18,8 km/h (3 Bft)
11.02.2009 14:00 2,0 C 66 % 1013,7 hPa 0,0 l/m W-NW 20,8 km/h (4 Bft)
11.02.2009 15:00 1,5 C 66 % 1014,0 hPa 0,0 l/m W-NW 17,7 km/h (3 Bft)
11.02.2009 16:00 0,6 C 74 % 1014,4 hPa 0,0 l/m W-NW 15,7 km/h (3 Bft)
11.02.2009 17:00 -0,1 C 78 % 1014,9 hPa 0,0 l/m W-NW 7,9 km/h (2 Bft)
11.02.2009 18:00 -0,6 C 75 % 1015,3 hPa 0,0 l/m W-NW 7,1 km/h (2 Bft)
11.02.2009 19:00 -1,0 C 79 % 1015,4 hPa 0,0 l/m W 9,0 km/h (2 Bft)
11.02.2009 20:00 -1,1 C 83 % 1015,4 hPa 0,0 l/m W-NW 12,9 km/h (3 Bft)
11.02.2009 21:00 -1,2 C 85 % 1015,4 hPa 0,0 l/m W 16,6 km/h (3 Bft)
11.02.2009 22:00 -1,4 C 84 % 1015,2 hPa 0,0 l/m W 10,9 km/h (2 Bft)
11.02.2009 23:00 -1,3 C 83 % 1015,1 hPa 0,0 l/m W 15,7 km/h (3 Bft)
12.02.2009 00:00 -1,3 C 83 % 1014,9 hPa 0,0 l/m W 15,0 km/h (3 Bft)
12.02.2009 01:00 -1,5 C 82 % 1014,7 hPa 0,0 l/m W 14,2 km/h (3 Bft)
12.02.2009 02:00 -1,4 C 82 % 1014,5 hPa 0,0 l/m SW 10,6 km/h (2 Bft)
12.02.2009 03:00 -1,4 C 85 % 1013,9 hPa 0,0 l/m W-SW 18,5 km/h (3 Bft)
12.02.2009 04:00 -1,6 C 91 % 1013,4 hPa 0,0 l/m SW 19,0 km/h (3 Bft)
12.02.2009 05:00 -1,7 C 91 % 1012,9 hPa 0,0 l/m SW 21,2 km/h (4 Bft)
12.02.2009 06:00 -1,8 C 92 % 1012,7 hPa 0,0 l/m W-SW 21,7 km/h (4 Bft)
12.02.2009 07:00 -1,8 C 93 % 1012,7 hPa 0,4 l/m W 17,0 km/h (3 Bft)
12.02.2009 08:00 -1,7 C 94 % 1013,1 hPa 0,4 l/m W 16,5 km/h (3 Bft)
12.02.2009 09:00 -1,2 C 93 % 1014,0 hPa 0,4 l/m N-NW 9,5 km/h (2 Bft)
12.02.2009 10:00 -0,5 C 86 % 1014,5 hPa 0,0 l/m N-NW 11,6 km/h (2 Bft)
12.02.2009 11:00 -0,2 C 87 % 1015,3 hPa 0,4 l/m N 16,8 km/h (3 Bft)
12.02.2009 12:00 0,4 C 81 % 1015,8 hPa 0,0 l/m N 20,9 km/h (4 Bft)
12.02.2009 13:00 0,5 C 67 % 1016,3 hPa 0,0 l/m NO 22,9 km/h (4 Bft)
12.02.2009 14:00 -0,1 C 68 % 1017,0 hPa 0,0 l/m N-NW 17,3 km/h (3 Bft)
12.02.2009 15:00 -0,7 C 72 % 1017,6 hPa 0,0 l/m N 13,7 km/h (3 Bft)
12.02.2009 16:00 -0,8 C 70 % 1018,2 hPa 0,0 l/m N-NW 11,8 km/h (2 Bft)
12.02.2009 17:00 -2,0 C 74 % 1018,9 hPa 0,0 l/m W-NW 5,7 km/h (1 Bft)
12.02.2009 18:00 -2,5 C 79 % 1019,4 hPa 0,0 l/m W-NW 3,9 km/h (1 Bft)
12.02.2009 19:00 -2,8 C 82 % 1019,7 hPa 0,0 l/m W-NW 6,8 km/h (2 Bft)
12.02.2009 20:00 -2,8 C 84 % 1019,7 hPa 0,0 l/m W-NW 9,1 km/h (2 Bft)
12.02.2009 21:00 -3,3 C 85 % 1019,8 hPa 0,0 l/m W-NW 8,6 km/h (2 Bft)
12.02.2009 22:00 -4,0 C 87 % 1019,8 hPa 0,0 l/m W-NW 7,4 km/h (2 Bft)
12.02.2009 23:00 -4,9 C 87 % 1020,0 hPa 0,0 l/m N 1,1 km/h (0 Bft)
13.02.2009 00:00 -5,7 C 91 % 1020,3 hPa 0,0 l/m W-NW 1,6 km/h (1 Bft)
13.02.2009 01:00 -5,2 C 93 % 1019,9 hPa 0,0 l/m W 3,5 km/h (1 Bft)
13.02.2009 02:00 -4,2 C 92 % 1019,9 hPa 0,0 l/m W 9,9 km/h (2 Bft)
13.02.2009 03:00 -4,0 C 90 % 1019,8 hPa 0,0 l/m S 4,5 km/h (1 Bft)
13.02.2009 04:00 -4,7 C 91 % 1019,8 hPa 0,0 l/m N 0,9 km/h (0 Bft)
13.02.2009 05:00 -4,8 C 92 % 1019,8 hPa 0,0 l/m N 0,9 km/h (0 Bft)
13.02.2009 06:00 -5,5 C 91 % 1019,8 hPa 0,0 l/m N 1,2 km/h (1 Bft)
13.02.2009 07:00 -5,9 C 93 % 1020,2 hPa 0,0 l/m S-SW 1,6 km/h (1 Bft)
13.02.2009 08:00 -5,6 C 94 % 1020,4 hPa 0,0 l/m W-NW 3,1 km/h (1 Bft)
13.02.2009 09:00 -4,1 C 92 % 1020,5 hPa 0,0 l/m W-SW 9,7 km/h (2 Bft)
13.02.2009 10:00 -2,4 C 85 % 1020,5 hPa 0,0 l/m W-SW 9,1 km/h (2 Bft)
13.02.2009 11:00 -1,6 C 79 % 1020,3 hPa 0,0 l/m W 14,5 km/h (3 Bft)
13.02.2009 12:00 -0,6 C 76 % 1019,8 hPa 0,0 l/m W-NW 10,2 km/h (2 Bft)
13.02.2009 13:00 -0,6 C 80 % 1019,6 hPa 0,0 l/m W-NW 9,3 km/h (2 Bft)
13.02.2009 14:00 -0,2 C 75 % 1019,6 hPa 0,0 l/m W 9,4 km/h (2 Bft)
13.02.2009 15:00 0,1 C 75 % 1019,5 hPa 0,0 l/m W-NW 11,5 km/h (2 Bft)
13.02.2009 16:00 -0,6 C 81 % 1019,5 hPa 0,0 l/m SW 11,3 km/h (2 Bft)
13.02.2009 17:00 -1,6 C 88 % 1019,7 hPa 0,0 l/m W-SW 5,5 km/h (1 Bft)
13.02.2009 18:00 -2,0 C 92 % 1020,0 hPa 0,0 l/m SW 2,9 km/h (1 Bft)
13.02.2009 19:00 -2,1 C 92 % 1019,9 hPa 0,0 l/m N 2,1 km/h (1 Bft)
13.02.2009 20:00 -2,5 C 92 % 1019,8 hPa 0,0 l/m N 1,1 km/h (0 Bft)
13.02.2009 21:00 -2,9 C 93 % 1019,8 hPa 0,0 l/m N 1,3 km/h (1 Bft)
13.02.2009 22:00 -3,4 C 93 % 1019,6 hPa 0,0 l/m SW 2,1 km/h (1 Bft)
13.02.2009 23:00 -3,9 C 92 % 1019,6 hPa 0,0 l/m N 0,7 km/h (0 Bft)
14.02.2009 00:00 -4,0 C 93 % 1019,6 hPa 0,0 l/m W 0,4 km/h (0 Bft)
14.02.2009 01:00 -3,8 C 93 % 1019,3 hPa 0,0 l/m W 4,3 km/h (1 Bft)
14.02.2009 02:00 -3,9 C 92 % 1019,0 hPa 0,0 l/m N 1,2 km/h (1 Bft)
14.02.2009 03:00 -4,2 C 93 % 1018,7 hPa 0,0 l/m N 1,6 km/h (1 Bft)
14.02.2009 04:00 -4,2 C 94 % 1018,7 hPa 0,0 l/m SW 2,8 km/h (1 Bft)
14.02.2009 05:00 -4,2 C 94 % 1018,7 hPa 0,2 l/m S-SW 4,0 km/h (1 Bft)
14.02.2009 06:00 -4,2 C 95 % 1019,0 hPa 0,2 l/m S-SW 2,9 km/h (1 Bft)
14.02.2009 07:00 -3,8 C 95 % 1019,5 hPa 0,4 l/m S-SW 3,6 km/h (1 Bft)
14.02.2009 08:00 -3,4 C 95 % 1019,9 hPa 0,0 l/m SW 3,7 km/h (1 Bft)
14.02.2009 09:00 -2,5 C 92 % 1020,6 hPa 0,0 l/m SW 5,5 km/h (1 Bft)
14.02.2009 10:00 -1,5 C 88 % 1021,3 hPa 0,0 l/m SW 4,4 km/h (1 Bft)
14.02.2009 11:00 -0,6 C 86 % 1021,8 hPa 0,0 l/m N 4,1 km/h (1 Bft)
14.02.2009 12:00 0,2 C 82 % 1022,2 hPa 0,0 l/m NO 2,7 km/h (1 Bft)
14.02.2009 13:00 0,0 C 83 % 1022,6 hPa 0,0 l/m N-NO 4,3 km/h (1 Bft)
14.02.2009 14:00 -0,4 C 85 % 1023,0 hPa 0,0 l/m N-NO 9,4 km/h (2 Bft)
14.02.2009 15:00 -0,5 C 87 % 1023,5 hPa 0,0 l/m N-NO 5,2 km/h (1 Bft)
14.02.2009 16:00 -0,3 C 84 % 1024,1 hPa 0,0 l/m N 6,4 km/h (2 Bft)
14.02.2009 17:00 -1,3 C 87 % 1024,5 hPa 0,0 l/m N 6,2 km/h (2 Bft)
14.02.2009 18:00 -2,2 C 86 % 1025,2 hPa 0,0 l/m N-NW 6,7 km/h (2 Bft)
14.02.2009 19:00 -3,2 C 87 % 1025,8 hPa 0,0 l/m N-NW 4,7 km/h (1 Bft)
14.02.2009 20:00 -4,3 C 87 % 1026,5 hPa 0,0 l/m N 2,4 km/h (1 Bft)
14.02.2009 21:00 -5,8 C 87 % 1026,9 hPa 0,0 l/m N 2,3 km/h (1 Bft)
14.02.2009 22:00 -7,1 C 89 % 1027,5 hPa 0,0 l/m N 0,7 km/h (0 Bft)
14.02.2009 23:00 -8,3 C 89 % 1027,9 hPa 0,0 l/m N 0,3 km/h (0 Bft)
15.02.2009 00:00 -9,4 C 87 % 1028,4 hPa 0,0 l/m N 0,0 km/h (0 Bft)
15.02.2009 01:00 -10,6 C 88 % 1028,5 hPa 0,0 l/m N 0,1 km/h (0 Bft)
15.02.2009 02:00 -10,5 C 93 % 1028,8 hPa 0,0 l/m N 0,3 km/h (0 Bft)
15.02.2009 03:00 -9,1 C 95 % 1028,9 hPa 0,0 l/m N 0,3 km/h (0 Bft)
15.02.2009 04:00 -8,7 C 91 % 1029,0 hPa 0,0 l/m N 0,0 km/h (0 Bft)
15.02.2009 05:00 -9,9 C 87 % 1029,1 hPa 0,0 l/m N 0,0 km/h (0 Bft)
15.02.2009 06:00 -11,0 C 88 % 1029,5 hPa 0,0 l/m N 0,0 km/h (0 Bft)
15.02.2009 07:00 -11,9 C 88 % 1029,9 hPa 0,0 l/m N 0,1 km/h (0 Bft)
15.02.2009 08:00 -12,3 C 90 % 1030,4 hPa 0,0 l/m N 0,0 km/h (0 Bft)
15.02.2009 09:00 -11,1 C 94 % 1030,7 hPa 0,0 l/m N 0,8 km/h (0 Bft)
15.02.2009 10:00 -8,4 C 95 % 1030,9 hPa 0,0 l/m N 2,1 km/h (1 Bft)
15.02.2009 11:00 -5,0 C 89 % 1030,8 hPa 0,0 l/m S-SO 3,3 km/h (1 Bft)
15.02.2009 12:00 -2,8 C 81 % 1030,2 hPa 0,0 l/m S-SW 5,7 km/h (1 Bft)
15.02.2009 13:00 -1,3 C 74 % 1029,8 hPa 0,0 l/m SW 8,7 km/h (2 Bft)
15.02.2009 14:00 -0,8 C 68 % 1029,1 hPa 0,0 l/m S-SW 7,1 km/h (2 Bft)
15.02.2009 15:00 -1,0 C 66 % 1028,8 hPa 0,0 l/m SW 5,1 km/h (1 Bft)
15.02.2009 16:00 -1,4 C 69 % 1028,6 hPa 0,0 l/m SW 3,3 km/h (1 Bft)
15.02.2009 17:00 -2,8 C 76 % 1028,5 hPa 0,0 l/m SW 2,3 km/h (1 Bft)
15.02.2009 18:00 -4,6 C 84 % 1028,8 hPa 0,0 l/m N 0,0 km/h (0 Bft)
15.02.2009 19:00 -5,5 C 86 % 1028,6 hPa 0,0 l/m N 0,0 km/h (0 Bft)
15.02.2009 20:00 -5,8 C 87 % 1028,5 hPa 0,0 l/m N 0,0 km/h (0 Bft)
15.02.2009 21:00 -5,7 C 88 % 1028,5 hPa 0,0 l/m N 0,4 km/h (0 Bft)
15.02.2009 22:00 -5,6 C 88 % 1028,5 hPa 0,0 l/m SW 0,7 km/h (0 Bft)
15.02.2009 23:00 -5,8 C 89 % 1028,3 hPa 0,0 l/m N 1,3 km/h (1 Bft)
Min-Datum _ 15.02.09 11.02.09 10.02.09 - - 09.02.09
_ Min-Zeit 08:20 14:35 09:35 - - 00:15
Minimum _ -12,4 C 63 % 993,8 hPa - - 0,0 km/h (0 Bft)
Max-Datum _ 10.02.09 13.02.09 15.02.09 09.02.09 - 10.02.09
_ Max-Zeit 09:45 21:40 10:05 22:05 - 10:15
Maximum _ 6,7 C 99 % 1031,0 hPa 2,0 l/m - 64,4 km/h
W (8 Bft)
Durchschnitt _ -1,7 C 86 % 1015,6 hPa #11,6 l/m SW 11,5 km/h (2 Bft)